Location: Alsip
(41.6689°N, 87.7387°W)
Time: 09:43:18
(UTC+00:00)

GEOS 3 Rocket - Pass Details

Date: 23 October 2020
Orbit: 770 x 850 km, 115.0° (Epoch: 03 December)

Event Time Altitude Azimuth Distance (km) Brightness Sun altitude
Exits shadow 00:28:05 18° 134° (SE) 1,938 5.2 -17.4°
Maximum altitude 00:32:07 76° 51° (NE) 864 3.6 -18.2°
Drops below altitude 10° 00:37:30 10° 327° (NNW) 2,469 6.6 -19.2°
Sets 00:39:50 0° 326° (NW) 3,413 7.4 -19.6°
